Preveza, Greece

7:32 AM EET on December 08, 2016 (GMT +0200)
Aktion Air Base

Weather History for LGPZ - October, 2013

Change the Weather History Date:

Saturday, October 5, 2013

  Actual Average Record
Temperature  
Mean Temperature 64 °F -  
Max Temperature 74 °F 74 °F 84 °F (2003)
Min Temperature 55 °F 61 °F 55 °F (2013)
Growing Degree Days 14 (Base 50)    
Moisture  
Dew Point 48 °F    
Average Humidity 57    
Maximum Humidity 88    
Minimum Humidity 25    
Precipitation  
Precipitation 0.00 in - - ()
Sea Level Pressure  
Sea Level Pressure 30.23 in    
Wind  
Wind Speed 6 mph ()    
Max Wind Speed 15 mph    
Max Gust Speed -    
Visibility 6.2 miles    
Events      
Averages and records for this station are not official NWS values.
T = Trace of Precipitation, MM = Missing Value Source: Averaged Metar Reports

Daily Weather History Graph

Daily Weather History Graph

Search for Another Location

Airport or City:

Trip Planner

Search our weather history database for the weather conditions in past years. The results will help you decide how hot, cold, wet, or windy it might be!

Date:

Astronomy

Oct. 05, 2013 Rise Set
Actual Time 7:36 AM EEST 7:13 PM EEST
Civil Twilight 7:09 AM EEST 7:40 PM EEST
Nautical Twilight 6:39 AM EEST 8:10 PM EEST
Astronomical Twilight 6:08 AM EEST 8:41 PM EEST
Moon 7:55 AM EEST (10/5) 7:21 PM EEST (10/5)
Length of Visible Light 12h 30m
Length of Day
11h 36m
New Moon, 0% of the Moon is Illuminated
Oct 5
New Moon
Oct 12
First Quarter
Oct 19
Full
Oct 27
Last Quarter
Nov 3
New

Hourly Weather History & Observations

Time (EEST) Temp. Dew Point Humidity Pressure Visibility Wind Dir Wind Speed Gust Speed Precip Events Conditions
12:20 AM 62.6 °F 53.6 °F 72% 30.24 in - Variable 2.3 mph - N/A   Unknown
12:50 AM 60.8 °F 51.8 °F 72% 30.24 in - Variable 1.2 mph - N/A   Unknown
1:20 AM 59.0 °F 51.8 °F 77% 30.24 in - Variable 2.3 mph - N/A   Unknown
1:50 AM 60.8 °F 55.4 °F 82% 30.24 in - Variable 3.5 mph - N/A   Unknown
2:20 AM 59.0 °F 55.4 °F 88% 30.24 in - Variable 2.3 mph - N/A   Unknown
2:50 AM 59.0 °F 55.4 °F 88% 30.24 in - Variable 1.2 mph - N/A   Unknown
3:00 AM 59 °F 54 °F 80% 30.25 in - SSE 2.3 mph - -  
3:20 AM 55.4 °F 51.8 °F 88% 30.24 in - Variable 1.2 mph - N/A   Unknown
3:50 AM 55.4 °F 51.8 °F 88% 30.24 in - Variable 1.2 mph - N/A   Unknown
4:20 AM 59.0 °F 53.6 °F 82% 30.24 in - Variable 3.5 mph - N/A   Unknown
4:50 AM 60.8 °F 51.8 °F 72% 30.21 in - ENE 9.2 mph - N/A   Unknown
5:20 AM 62.6 °F 50.0 °F 63% 30.21 in - ENE 11.5 mph - N/A   Unknown
5:50 AM 62.6 °F 48.2 °F 59% 30.21 in - ENE 11.5 mph - N/A   Unknown
6:20 AM 62.6 °F 48.2 °F 59% 30.21 in 6.2 mi East 13.8 mph - N/A   Partly Cloudy
6:50 AM 62.6 °F 48.2 °F 59% 30.21 in 6.2 mi ENE 13.8 mph - N/A   Partly Cloudy
7:20 AM 62.6 °F 48.2 °F 59% 30.21 in 6.2 mi East 13.8 mph - N/A   Partly Cloudy
7:50 AM 62.6 °F 48.2 °F 59% 30.21 in 6.2 mi East 13.8 mph - N/A   Partly Cloudy
8:20 AM 62.6 °F 46.4 °F 55% 30.24 in 6.2 mi East 15.0 mph - N/A   Scattered Clouds
8:50 AM 62.6 °F 46.4 °F 55% 30.24 in 6.2 mi East 13.8 mph - N/A   Scattered Clouds
9:00 AM 63 °F 46 °F 42% 30.26 in 6 mi East 13.8 mph - -   Partly Cloudy
9:20 AM 64.4 °F 44.6 °F 49% 30.27 in 6.2 mi ENE 15.0 mph - N/A   Scattered Clouds
9:50 AM 64.4 °F 44.6 °F 49% 30.27 in 6.2 mi ENE 13.8 mph - N/A   Scattered Clouds
10:20 AM 66.2 °F 44.6 °F 46% 30.27 in 6.2 mi East 13.8 mph - N/A   Scattered Clouds
10:50 AM 68.0 °F 42.8 °F 40% 30.24 in 6.2 mi ENE 15.0 mph - N/A   Scattered Clouds
11:20 AM 68.0 °F 42.8 °F 40% 30.27 in 6.2 mi ENE 13.8 mph - N/A   Scattered Clouds
11:50 AM 69.8 °F 42.8 °F 38% 30.24 in 6.2 mi ENE 12.7 mph - N/A   Scattered Clouds
12:20 PM 69.8 °F 44.6 °F 40% 30.27 in 6.2 mi ENE 10.4 mph - N/A   Scattered Clouds
12:50 PM 71.6 °F 44.6 °F 38% 30.24 in 6.2 mi ENE 9.2 mph - N/A   Scattered Clouds
1:20 PM 71.6 °F 44.6 °F 38% 30.24 in 6.2 mi ENE 10.4 mph - N/A   Scattered Clouds
1:50 PM 71.6 °F 44.6 °F 38% 30.24 in 6.2 mi NE 8.1 mph - N/A   Scattered Clouds
2:20 PM 71.6 °F 44.6 °F 38% 30.24 in 6.2 mi ENE 6.9 mph - N/A   Scattered Clouds
2:50 PM 73.4 °F 44.6 °F 36% 30.24 in 6.2 mi East 4.6 mph - N/A   Scattered Clouds
3:00 PM 73 °F 44 °F 25% 30.25 in 6 mi East 4.6 mph - -   Scattered Clouds
3:20 PM 73.4 °F 44.6 °F 36% 30.24 in 6.2 mi ENE 4.6 mph - N/A   Scattered Clouds
3:50 PM 73.4 °F 44.6 °F 36% 30.21 in 6.2 mi ENE 4.6 mph - N/A   Scattered Clouds
4:20 PM 73.4 °F 42.8 °F 33% 30.21 in 6.2 mi West 5.8 mph - N/A   Scattered Clouds
4:50 PM 73.4 °F 46.4 °F 38% 30.21 in 6.2 mi WNW 6.9 mph - N/A   Partly Cloudy
5:20 PM 73.4 °F 44.6 °F 36% 30.21 in 6.2 mi West 6.9 mph - N/A   Partly Cloudy
5:50 PM 71.6 °F 46.4 °F 41% 30.21 in 6.2 mi West 6.9 mph - N/A   Partly Cloudy
6:20 PM 68.0 °F 48.2 °F 49% 30.18 in 6.2 mi West 6.9 mph - N/A   Scattered Clouds
6:50 PM 66.2 °F 51.8 °F 60% 30.21 in 6.2 mi West 8.1 mph - N/A   Scattered Clouds
7:20 PM 64.4 °F 50.0 °F 59% 30.21 in 6.2 mi West 5.8 mph - N/A   Scattered Clouds
7:50 PM 66.2 °F 50.0 °F 56% 30.18 in 6.2 mi West 4.6 mph - N/A   Scattered Clouds
8:20 PM 64.4 °F 50.0 °F 59% 30.18 in 6.2 mi West 4.6 mph - N/A   Scattered Clouds
8:50 PM 62.6 °F 51.8 °F 68% 30.18 in 6.2 mi Calm Calm - N/A   Scattered Clouds
9:00 PM 63 °F 52 °F 57% 30.21 in 6 mi Calm Calm - -   Scattered Clouds
9:20 PM 64.4 °F 53.6 °F 68% 30.21 in 6.2 mi SE 4.6 mph - N/A   Scattered Clouds
9:50 PM 60.8 °F 51.8 °F 72% 30.21 in 6.2 mi Variable 3.5 mph - N/A   Scattered Clouds
10:20 PM 62.6 °F 51.8 °F 68% 30.21 in - Variable 1.2 mph - N/A   Unknown
10:50 PM 57.2 °F 50.0 °F 77% 30.21 in - Variable 1.2 mph - N/A   Unknown
11:20 PM 59.0 °F 50.0 °F 72% 30.21 in - Variable 1.2 mph - N/A   Unknown
11:50 PM 60.8 °F 50.0 °F 68% 30.21 in - Variable 1.2 mph - N/A   Unknown